Location: Unspecified
(54.1780°N, 4.6260°W)
Time: 01:03:35
(UTC+00:00)

Daily predictions for brighter satellites

Satellite Brightness Start Highest point End
(mag) Time Altitude Azimuth Time Altitude Azimuth Time Altitude Azimuth
ACS3 Solar Sail 3.1 00:01:18 10° NNE 00:06:16 27° E 00:10:07 15° SE
USA 234 4.0 00:01:09 10° ENE 00:06:53 32° SE 00:09:42 23° S
Meteor 2-4 Rocket 3.7 00:07:23 26° S 00:10:35 78° E 00:16:13 10° NNE
Cosmos 1943 4.2 00:05:48 10° NNW 00:11:11 43° NE 00:16:31 10° ESE
SAR-Lupe-2 3.9 00:10:22 34° SSW 00:11:18 45° WSW 00:14:32 10° NNW
Cosmos 1238 Rocket 3.0 00:13:37 30° SSW 00:15:43 82° WNW 00:20:22 10° N
ATLAS 2AS CENTAUR R/B 3.0 00:10:36 10° NW 00:17:23 68° NE 00:24:09 10° ESE
Meteor 2-11 Rocket 4.4 00:11:44 10° N 00:17:54 84° E 00:21:52 23° SSE
CZ-4C R/B 3.6 00:12:31 10° NW 00:18:21 49° NNE 00:25:52 10° E
PSLV R/B 3.7 00:14:19 10° NNE 00:18:38 74° WNW 00:21:04 26° SSW
Sich 1 3.0 00:17:01 10° N 00:21:13 77° ENE 00:23:18 29° SSE
BlueWalker 3 1.8 00:23:55 30° SW 00:25:19 53° SSE 00:28:48 10° E
SL-14 R/B 3.7 00:24:47 29° SSE 00:26:17 46° E 00:29:55 10° NNE
Cosmos 2297 Rocket 2.5 00:22:53 15° SW 00:27:38 67° NW 00:33:18 10° NNE
Cosmos 1500 Rocket 4.1 00:26:15 10° N 00:30:37 54° ENE 00:33:21 21° SE
Cosmos 1867 4.1 00:27:45 10° NW 00:33:11 61° NE 00:38:36 10° ESE
BREEZE-M DEB (TANK) 3.4 00:24:50 10° WSW 00:34:46 71° S 00:37:49 10° E
Cosmos 1125 Rocket 3.5 00:30:28 10° NNW 00:35:48 84° WSW 00:39:14 22° SSE
CENTAUR R/B 4.0 00:41:02 13° SE 00:43:59 19° ESE 00:48:22 10° ENE
Cosmos 1655 Rocket 4.4 00:40:47 10° NNW 00:46:47 51° W 00:50:39 22° SSW
Cosmos 158 Rocket 4.2 00:44:03 21° SW 00:47:41 72° WNW 00:53:00 10° NNE
Cosmos 1814 Rocket 4.1 00:46:08 22° SW 00:49:31 77° WNW 00:54:50 10° NNE
Cosmos 1842 Rocket 3.8 00:53:35 26° SSW 00:55:57 60° WNW 01:00:22 10° N
Cosmos 1066 Rocket 4.4 00:55:52 23° SSW 00:59:21 66° WNW 01:04:57 10° N
Iridium 4 Rocket 3.9 00:56:20 24° SSW 00:59:58 69° W 01:05:47 10° N
Cosmos 1805 Rocket 3.5 00:56:18 10° NNW 01:00:39 78° W 01:02:56 27° S
Okean 3 Rocket 4.0 00:56:39 10° NNW 01:01:03 52° W 01:03:17 26° SSW
CZ-2C R/B 3.2 01:02:37 23° SSW 01:05:24 42° W 01:10:20 10° NNW
CZ-4C R/B 3.1 01:02:22 10° NNE 01:05:48 68° ESE 01:07:19 31° S
Cosmos 1758 3.5 01:02:42 10° NNW 01:06:12 46° W 01:07:33 30° SSW
Cosmos 1743 Rocket 3.6 01:02:16 10° N 01:06:36 77° ENE 01:09:18 22° SSE
CZ-2C R/B 3.7 01:02:29 10° N 01:08:08 57° WNW 01:12:17 19° SW
Cosmos 2150 Rocket 4.3 01:03:43 10° NNW 01:09:11 71° ENE 01:14:37 10° SE
Landsat 5 3.3 01:08:30 10° NNE 01:12:33 76° WNW 01:14:35 27° SSW
BREEZE-M DEB (TANK) 3.7 01:00:42 10° WSW 01:12:54 48° S 01:16:57 10° E
SL-16 R/B 2.8 01:10:18 10° NW 01:15:35 40° WSW 01:18:38 22° SSW
In-Cosmos 22 4.3 01:14:36 22° SSW 01:18:16 74° WNW 01:24:00 10° NNE
Cosmos 1408 Rocket 3.9 01:17:16 10° NNW 01:21:26 49° W 01:23:38 25° SSW
Cosmos 2219 3.3 01:19:44 22° SSW 01:23:20 65° ESE 01:28:55 10° NE
Cosmos 2237 Rocket 4.2 01:21:26 10° WNW 01:23:22 12° W 01:25:17 10° WSW
S3M 4.2 01:21:41 18° S 01:26:17 67° E 01:32:22 10° NNE
SeaSat 1 2.6 01:24:30 19° SSE 01:27:58 57° WSW 01:32:48 10° NW
DELTA 2 DEB (DPAF) 3.5 01:25:05 10° NNE 01:28:40 85° WNW 01:30:28 28° SSW
Lacrosse 4 Rocket 3.0 01:26:06 10° W 01:29:42 30° NW 01:33:23 10° NNE
Cosmos 44 Rocket 4.2 01:25:01 10° NW 01:30:11 56° NE 01:35:15 10° ESE
Cosmos 1953 2.1 01:28:14 10° N 01:31:55 75° E 01:34:17 20° SSE
Cosmos 2285 Rocket 4.2 01:27:56 10° NNW 01:34:16 75° ENE 01:40:35 10° SSE
Cosmos 2227 Rocket 2.9 01:33:24 13° WSW 01:38:23 50° NW 01:43:55 10° NNE
IDEFIX/ARIANE 42P 3.5 01:33:36 10° NNE 01:38:33 41° E 01:42:53 13° SSE
PSLV R/B 3.9 01:34:46 10° NNE 01:38:41 70° ESE 01:41:01 23° S
Cosmos 1340 Rocket 3.7 01:35:24 10° NNW 01:38:52 32° W 01:40:29 23° SW
Cosmos 2263 Rocket 2.4 01:36:06 17° SW 01:40:27 66° NW 01:46:02 10° NNE
Cosmos 1151 Rocket 3.5 01:40:25 21° SW 01:43:01 51° WNW 01:47:16 10° N
Cosmos 1553 Rocket 4.5 01:39:40 18° SW 01:44:24 53° WNW 01:50:42 10° N
Cosmos 2315 Rocket 4.2 01:40:33 16° S 01:45:40 73° E 01:51:58 10° NNE
Cosmos 1709 Rocket 4.0 01:42:34 10° NNW 01:48:45 72° W 01:53:59 15° S
ACS3 Solar Sail 1.8 01:43:13 10° N 01:49:05 69° WNW 01:53:35 18° SSW
USA 234 3.2 01:44:03 10° ENE 01:50:37 74° SSE 01:57:01 11° WSW
Cosmos 1943 3.5 01:49:55 10° NW 01:55:18 48° WSW 01:59:52 14° S
BlueWalker 3 1.6 01:59:03 10° W 02:02:36 78° S 02:06:10 10° E
Cosmos 1633 Rocket 3.0 01:58:51 10° NNW 02:03:11 74° W 02:06:44 15° S
Cosmos 1833 Rocket 4.1 02:00:30 10° NNW 02:05:50 41° NE 02:11:09 10° ESE
CZ-4C R/B 2.8 02:00:35 10° NW 02:07:09 78° SW 02:15:33 10° SE
ATLAS 2AS CENTAUR R/B 3.0 02:01:45 10° NW 02:08:04 43° WSW 02:14:25 10° S
Cosmos 1703 3.3 02:06:58 21° SW 02:08:44 44° WNW 02:11:50 10° N
Cosmos 1470 Rocket 3.5 02:04:59 10° NNW 02:09:23 89° E 02:13:45 10° S
Cosmos 1844 Rocket 3.0 02:05:17 16° S 02:09:42 58° ESE 02:15:10 10° NE
Okean 2 4.2 02:07:00 11° SSE 02:10:22 42° E 02:14:01 10° NNE
Cosmos 2297 Rocket 4.2 02:08:19 10° W 02:12:45 23° NNW 02:17:11 10° NNE
Cosmos 1867 4.1 02:11:35 10° NW 02:16:37 38° WSW 02:21:36 10° S
Cosmos 1933 Rocket 4.3 02:12:34 10° N 02:16:50 52° ENE 02:21:03 10° SSE
CZ-2D R/B 4.0 02:15:22 10° NE 02:19:54 26° E 02:24:26 10° SSE
USA 81 4.1 02:17:37 10° N 02:22:53 70° W 02:27:56 11° S
Cosmos 773 Rocket 4.2 02:19:19 15° SW 02:23:31 61° WNW 02:28:36 10° NNE
Meteor 1-16 Rocket 4.1 02:18:17 10° NNW 02:23:35 72° W 02:28:54 10° S
Cosmos 2082 3.9 02:18:47 14° SW 02:23:37 65° NW 02:29:14 10° NNE
Cosmos 1603 3.8 02:21:44 10° NW 02:27:23 57° WSW 02:32:58 10° SSE
Aureole 2 4.4 02:25:44 18° SW 02:28:06 67° WNW 02:31:19 10° NNE
FENGYUN 3A 3.8 02:23:00 10° NNE 02:28:26 74° ESE 02:33:40 11° S
EXPRESS MD2 3.5 02:29:03 19° S 02:29:03 19° S 02:30:41 10° SE
CENTAUR R/B 2.6 02:28:06 14° SW 02:33:07 74° SE 02:40:27 10° NE
NOSS 2-2 (C) 2.9 02:32:25 13° WSW 02:35:00 61° NW 02:37:59 10° NE
Meteor 1-23 Rocket 4.3 02:31:02 12° SSW 02:36:20 84° WNW 02:42:01 10° NNE
Cosmos 2074 Rocket 4.0 02:30:44 10° NNW 02:37:03 89° W 02:43:18 10° S
Cosmos 2154 Rocket 4.1 02:34:25 10° N 02:40:43 88° E 02:46:56 10° S
ADEOS II 3.8 02:36:36 10° NE 02:41:03 28° E 02:45:31 10° SSE
NPP 3.7 02:37:32 10° NNE 02:42:58 88° WNW 02:48:21 10° SSW
NOSS 2-2 (E) 2.9 02:44:23 14° SSW 02:47:02 58° SE 02:49:59 10° NE
Cosmos 1869 Rocket 3.7 02:43:48 10° N 02:48:10 75° ENE 02:52:29 10° SSE
Cosmos 2184 Rocket 4.0 02:42:00 10° NNW 02:48:11 79° W 02:54:21 10° S
ALOS 3.5 02:45:19 10° NNE 02:49:34 37° E 02:53:47 10° SSE
H-2A R/B 2.6 02:55:43 10° SSE 02:59:17 62° ENE 03:02:56 10° N
USA 281 3.2 02:53:58 10° SSE 03:00:33 81° WSW 03:07:11 10° NNW
Cosmos 1844 3.9 02:56:09 10° SW 03:01:49 76° NW 03:07:40 10° NNE
ADEOS Rocket 3.6 02:55:22 10° NNE 03:03:03 73° WNW 03:10:07 10° SSW
NOAA 11 4.3 02:58:05 10° NNE 03:03:35 89° W 03:09:04 10° SSW
Cosmos 2082 Rocket 4.4 02:59:20 10° NNW 03:04:23 31° NE 03:09:22 10° E
Envisat 3.3 03:00:01 10° NNE 03:05:06 68° ESE 03:10:09 10° S
Cosmos 1953 4.3 03:04:51 10° WNW 03:06:15 12° W 03:07:39 10° WSW
SeaSat 1 4.4 03:05:05 10° WSW 03:06:18 11° W 03:07:31 10° W
Cosmos 1515 Rocket 3.7 03:02:05 10° SSW 03:06:27 61° WNW 03:10:51 10° N
Resurs 1-4 Rocket 2.6 03:01:26 10° NNE 03:06:40 59° ESE 03:11:51 10° S
Cosmos 2219 4.4 03:02:44 10° WSW 03:07:52 35° NW 03:13:00 10° NNE
Lacrosse 4 Rocket 4.1 03:06:35 10° NW 03:08:43 14° NNW 03:10:54 10° NNE
Cosmos 44 Rocket 3.9 03:06:41 10° NW 03:11:30 39° WSW 03:16:13 10° S
H-2A R/B 2.9 03:07:13 10° NNE 03:12:33 54° E 03:17:51 10° S
Cosmos 724 4.2 03:09:01 10° NW 03:14:49 69° SW 03:20:34 10° SSE
NOSS 2-2 (D) 3.1 03:12:33 10° WSW 03:15:40 55° NW 03:18:38 10° NE
IDEFIX/ARIANE 42P 3.3 03:13:09 10° N 03:18:02 41° WNW 03:22:53 10° SW
COSMOS 2441 4.5 03:16:11 10° N 03:20:56 65° WNW 03:25:42 10° SSW
Cosmos 2227 Rocket 4.3 03:19:45 10° WNW 03:23:47 19° NNW 03:27:51 10° NNE
Cosmos 2263 Rocket 4.1 03:21:06 10° W 03:25:25 22° NNW 03:29:45 10° NNE
